sat.trackr.live / text

‹ back to catalog

STARLINK-31800

NORAD 59643 · 2024-082N

PAYLOAD ACTIVE UNKNOWN

§ Identity

Operator
Country
US
Launch date
2024-05-03
Launch site
AFETR
Launch vehicle
Mass (kg)
RCS (m²)

Purposes: comms

External: N2YO · Heavens-Above · Gunter

§ Orbital elements

Epoch: 2026-05-25T03:40:45.049152Z

Period
94.27 min
Inclination
43.0008°
Eccentricity
0.0001378
Mean motion
15.27577542 rev/d
Perigee alt
482.1 km
Apogee alt
484.0 km
Semi-major
6,861.2 km
B*
1.9284e-4
RAAN
68.1739°
Arg perigee
279.0018°
Mean anomaly
81.0677°
Rev number
11,660

§ Raw data

STARLINK-318001 59643U 24082N   26145.15329918  .00005048  00000+0  19284-3 0  99922 59643  43.0008  68.1739 0001378 279.0018  81.0677 15.27577542116602

JSON: /api/v1/satellites/59643 · /tle

For live sub-satellite position, see the globe view (requires WebGL).

§ Visibility from observer

Set your observer location to see the next 7 days of passes ≥ 10°. The values pass through the URL so the page stays shareable.

No JS? Fill the form by hand. The geolocation button needs JavaScript.